Starlink 4021

operational
NORAD ID: 53149 Int'l Des: 2022-083 Owner: SPXS Country: US Constellation: starlink
LEOCIRCULAR

Über Starlink 4021

Beschreibung wird geladen...

Live-Position

3D-Globus wird geladen...

Nächste Überflüge

Höhenverlauf

Altitude vs Time

uPlot chart will show altitude changes over time

Zweizeiliger Elementsatz

1 53149U 22083T 25351.91792066 -.00000644 00000-0 -22355-4 0 9990
2 53149 53.2153 171.4092 0001566 99.4277 260.6892 15.08844723189017
Epoch: 17. Dez. 2025 • Age: 21 hours

Aktueller Status

Höhe 539.9 km
Geschwindigkeit 7.59 km/s
Subsatellitenpunkt 8.51°N, 165.14°E
Startdatum 17. Juli 2022
Alter 3.4 years
Typ internet

Technische Details

Klassifizierung Payload
Masse 297.00 kg
Trockenmasse 275.00 kg
Gesamtmasse 297.00 kg
Länge 0.20 m
Durchmesser 2.80 m
Spannweite 9.00 m
Form Box + pan
Hersteller SPXS
Bus-Typ Starlink
Phasenstatus In Orbit
Besitzer/Staat SPXS/US

Große Konstellationen

Loading constellations...